Torna al catalogo

DELTA 1 DEB

YO

AttivoVLEO
NORAD 228·DEBRIS·🇺🇸 United States

Lanciato Feb 8, 1962 da Cape Canaveral Space Force Station

Loading…

Prossimi Passaggi (prossime 24 ore)

TLE

AggiornatoSource: Space-Track

Epoca: Sep 14, 2026, 05:53 UTC

1 00228U 62002C   26257.24563762  .00039973  00000-0  50395-3 0  9995
2 00228  48.4283 201.4941 0002507 186.6719 173.4196 15.59100914456973

Traccia DELTA 1 DEB in tempo reale con AllMySat

Download on the App Store